Regional Weather Roundup
Issued by NWS

Home | Current Version | Previous Version | Text Only | Print | Product List | Glossary Off
Versions: 1 2 3 4 5 6 7 8 9 10 11 12 13 14 15 16 17 18 19 20 21 22 23 24 25 26 27 28 29 30 31 32 33 34 35 36 37 38 39 40 41 42 43 44 45 46 47 48 49 50

000
ASUS43 KLOT 020812
RWRIL

ILLINOIS REGIONAL WEATHER ROUNDUP
NATIONAL WEATHER SERVICE CHICAGO/ROMEOVILLE IL
300 AM CDT SUN AUG 02 2015

NOTE: "FAIR" INDICATES FEW OR NO CLOUDS BELOW 12,000 FEET WITH NO
SIGNIFICANT WEATHER AND/OR OBSTRUCTIONS TO VISIBILITY.

* THESE STATIONS ARE NOT UNDER NWS QUALITY CONTROL. THEY ALSO MAY NOT
  REPORT WEATHER SUCH AS PRECIPITATION OR FOG.

ILZ001-002-007-009-015-016-024-020900-
NORTHWEST ILLINOIS

CITY           SKY/WX    TMP DP  RH WIND       PRES   REMARKS
MOLINE         CLEAR     72  69  90 S3        29.88F
STERLING*      PTCLDY    70  66  88 SW3       29.85F
SAVANNA*       PTCLDY    73  69  88 S5        29.87F
$$

ILZ003-004-008-010-011-017-018-020900-
NORTH CENTRAL ILLINOIS

CITY           SKY/WX    TMP DP  RH WIND       PRES   REMARKS
ROCKFORD       MOCLDY    69  65  86 S6        29.88F
FREEPORT*      CLEAR     71  68  91 SW10      29.88F
ROCHELLE*      CLEAR     65  64  96 S6        29.89F
DE KALB*       CLEAR     73  68  86 SW10G18   29.89F
PERU*          CLEAR     71  66  85 SW8       29.91F
$$

ILZ005-006-012>014-019>023-020900-
NORTHEAST ILLINOIS

CITY           SKY/WX    TMP DP  RH WIND       PRES   REMARKS
CHICAGO-OHARE  PTCLDY    72  66  81 W12       29.87F
CHICAGO-MIDWAY PTCLDY    76  65  68 SW10      29.88S
AURORA         CLEAR     69  64  84 SW9       29.89F
LANSING*       CLEAR     70  64  81 W8        29.90S
JOLIET*        CLEAR     72  67  84 CALM      29.90F
WAUKEGAN       CLEAR     72  65  78 SW6       29.85F
DUPAGE AIRPORT CLEAR     69  65  86 SW10      29.88F
KANKAKEE*      CLEAR     67  64  89 CALM      29.92F
WHEELING       CLEAR     73  64  73 SW7       29.88F
MORRIS*        CLEAR     69  65  89 W6        29.89F
ROMEOVILLE*    CLEAR     69  64  82 W8        29.90S
NORTHERLY ISL    N/A     76  64  66 W8          N/A
$$

LMZ740>746-020900-
SOUTHERN LAKE MICHIGAN

STATION/POSITION SKY/WX   TEMP    WIND        PRES    VSBY  WAVE
                          AIR SEA DIR/SP/G                  HT/PER
                          (F)     (DEG/KT/KT) (MB)    (MI)  (FT/S)
HARRISON CRIB              77     250/ 19/ 22   N/A
BURNHAM HARBOR             76     280/  7/ 11   N/A
CALUMET HARBOR             75     220/  4/  8   N/A
BURNS HARBOR               74     210/ 10/ 15 1012.5F
MICHIGAN CITY              72     180/ 11/ 13   N/A
MICHIGAN CITY 6N           74 74  240/ 14/ 16   N/A           2/ 3
ST. JOSEPH                 74 73  260/ 12/ 16   N/A           2/ 4
$$

ILZ025>027-034>036-040-047-049-050-058-095>099-020900-
WEST-CENTRAL ILLINOIS

CITY           SKY/WX    TMP DP  RH WIND       PRES   REMARKS
QUINCY         PTCLDY    67  64  90 MISG      29.94S
GALESBURG*     CLEAR     67  66  97 S3        29.92F
MACOMB*        CLEAR     68  67  97 SW3       29.95S
JACKSONVILLE*  CLEAR     72  68  88 S6        29.94F
PITTSFIELD*    CLEAR     71  69  94 S3        29.95F
$$

ILZ028>032-037-038-041>044-048-051>054-059>061-020900-
CENTRAL ILLINOIS

CITY           SKY/WX    TMP DP  RH WIND       PRES   REMARKS
PONTIAC        CLEAR     68  67  94 SW5       29.93F
BLOOMINGTON    CLEAR     71  64  78 SW10      29.96S
DECATUR        CLEAR     69  60  73 SW5       29.96F
PEORIA         CLEAR     71  66  84 SW6       29.93S
LACON*         CLEAR     71  67  89 SW3       29.90F
LINCOLN*       CLEAR     70  64  79 S3        29.94S
SPRINGFIELD    CLEAR     72  65  78 S8        29.95F
TAYLORVILLE    CLEAR     64  63  94 S6        29.96F
$$

ILZ033-039-045-046-055>057-062-063-020900-
EAST-CENTRAL ILLINOIS

CITY           SKY/WX    TMP DP  RH WIND       PRES   REMARKS
CHAMPAIGN      CLEAR     64  61  90 SW6       29.96F
DANVILLE*      CLEAR     62  61  97 S5        29.93F
RANTOUL*       CLEAR     67  64  89 SW5       29.95S
MATTOON        CLEAR     69  59  70 S7        29.96F
PARIS*         PTCLDY    63  61  94 SW5       29.97F
$$

ILZ079-100>102-020900-
SOUTHWEST ILLINOIS

CITY           SKY/WX    TMP DP  RH WIND       PRES   REMARKS
ALTON          PTCLDY    68  66  93 S3        29.96F
BELLEVILLE     CLOUDY    72  72  99 CALM      29.95F
CAHOKIA*       PTCLDY    73  69  87 CALM      29.96F
SPARTA*        PTCLDY    73  67  83 S3        29.98F
$$

ILZ064>066-069>071-074>076-080>082-084>086-088>090-092>094-020900-
SOUTH-CENTRAL ILLINOIS

CITY           SKY/WX    TMP DP  RH WIND       PRES   REMARKS
CARBONDALE     PTCLDY    70  67  90 CALM      29.97F
CAIRO*         PTCLDY    70  69  96 NE5       29.96F
EFFINGHAM*     CLEAR     67  61  81 CALM      29.98F
MARION         PTCLDY    70  64  83 S5        29.98F
MT. VERNON     CLEAR     66  61  82 CALM      29.98F
CENTRALIA*     CLEAR     66  62  87 CALM      29.98S
SALEM*         CLEAR     68  64  88 CALM      29.98F
METROPOLIS*    PTCLDY    69  69 100 CALM      29.98F
$$

ILZ067-068-072-073-078-083-087-091-020900-
SOUTHEAST ILLINOIS

CITY           SKY/WX    TMP DP  RH WIND       PRES   REMARKS
LAWRENCEVILLE  PTCLDY    65  64  97 CALM      29.98F
FLORA*         PTCLDY    64  61  92 SW3       29.98F
FAIRFIELD*     PTCLDY    67  65  94 CALM      29.97S
HARRISBURG*    PTCLDY    65  65 100 CALM      29.99F
ROBINSON*      PTCLDY    64  62  94 CALM      29.98F
CARMI*         MOCLDY    66  62  86 CALM      29.97F
$$

ABBREVIATIONS USED IN REMARKS
   TC - TEMPERATURE IN CELSIUS
  WCI - WIND CHILL INDEX
   HX - HEAT INDEX
  VSB - VISIBILITY
$$



USA.gov is the U.S. government's official web portal to all federal, state and local government web resources and services.